Regional Weather Roundup
Issued by NWS Northern Indiana

Home | Current Version | Previous Version | Graphics & Text | Print | Product List | Glossary On
Versions: 1 2 3 4 5 6 7 8 9 10 11 12 13 14 15 16 17 18 19 20 21 22 23 24 25 26 27 28 29 30 31 32 33 34 35 36 37 38 39 40 41 42 43 44 45 46 47 48 49 50
000
ASUS43 KIWX 311000
RWRIWX

KIWX WEATHER ROUNDUP
NATIONAL WEATHER SERVICE NORTHERN INDIANA
600 AM EDT MON AUG 31 2015

NOTE: "FAIR" INDICATES FEW OR NO CLOUDS BELOW 12,000 FEET WITH NO
SIGNIFICANT WEATHER AND/OR OBSTRUCTIONS TO VISIBILITY.

* THESE STATIONS ARE NOT UNDER NWS QUALITY CONTROL. THEY ALSO MAY NOT
  REPORT WEATHER SUCH AS PRECIPITATION OR FOG.

INZ001>027-311100-
NORTHERN INDIANA

CITY           SKY/WX    TMP DP  RH WIND       PRES   REMARKS
GARY*          CLOUDY    64  63  94 CALM      30.05S FOG
KNOX*          CLOUDY    59  59 100 N3        30.03S VSB 1/4
SOUTH BEND     MOCLDY    62  61  96 CALM      30.05F
GOSHEN         FOG       63  62  97 CALM      30.05S VSB 1/4
MONTICELLO*    CLEAR     68  68 100 S6        30.04R
WARSAW*        FOG       63  63 100 CALM      30.06R VSB<1/4
ANGOLA*        CLOUDY    63  63 100 CALM      30.06S VSB 0
FORT WAYNE     PTCLDY    65  63  93 CALM      30.06S FOG
PERU/GRISSOM   CLEAR     66  65  96 SW3       30.05S

$$
INZ028>050-311100-
CENTRAL INDIANA

CITY           SKY/WX    TMP DP  RH WIND       PRES   REMARKS
LAFAYETTE      FOG       65  64  97 CALM      30.05R VSB 3/4
KOKOMO*        CLEAR     63  61  94 CALM      30.06S
MUNCIE*        CLEAR     67  66  97 SW6       30.07S
INDIANAPOLIS   MOCLDY    68  65  90 S3        30.05S

$$
MIZ043>046-050>051-056>058-064>065-071>073-077>080-311100-
SOUTHWEST LOWER MICHIGAN

CITY           SKY/WX    TMP DP  RH WIND       PRES   REMARKS
BATTLE CREEK   CLOUDY    63  60  90 CALM      30.06S
BENTON HARBOR  PTCLDY    59  58  96 CALM      30.04F FOG
COLDWATER*     CLOUDY    62  62 100 CALM      30.06R FOG
HILLSDALE*     FOG       60  60 100 CALM      30.07R VSB 1/4
HOLLAND        FOG       60  56  86 CALM      30.06R VSB 1/4
GRAND RAPIDS   FOG       63  63 100 SW3       30.05S VSB 1/4
KALAMAZOO      PTCLDY    60  58  92 CALM      30.06S
STURGIS*       FOG       61  61 100 CALM      30.06R VSB 1/4
THREE RIVERS*  FOG       60  60 100 CALM      30.06S VSB 1/4

$$
OHZ001>008-015>018-024>025-311100-
NORTHWEST OHIO

CITY           SKY/WX    TMP DP  RH WIND       PRES   REMARKS
DEFIANCE       FOG       66  64  93 CALM      30.06R VSB 1/4
FINDLAY        CLEAR     64  63  96 SW5       30.05R FOG
TOLEDO EXPRESS CLEAR     64  64 100 CALM      30.04S
TOLEDO METCALF CLEAR     67  64  90 CALM      30.05S
LIMA           CLEAR     65  64  97 S6        30.07R FOG

$$
AND FOR LAKE MICHIGAN COASTAL AND OPEN LAKE BUOY OBSERVATIONS

STATION/POSITION TEMP    WIND        PRES    VSBY  WAVE
                 AIR SEA DIR/SP/G                  HT/PER
                 (F)     (DEG/KT/KT) (MB)    (MI)  (FT/S)
MICHIGAN CITY     67     120/  4/  5   N/A
BURNS HARBOR      68     160/  3/  6 1017.6R
SAINT JOSEPH      64      90/  2/  3 1017.6S
SOUTH LAKE BUOY   68 68  200/  6/  6 1016.9R         0
4 MI NW BRIDGMAN  67 71  180/  6/  6   N/A           0
MICHIGAN CITY     68 71  160/  2/  4   N/A           0

$$
&&



USA.gov is the U.S. government's official web portal to all federal, state and local government web resources and services.